{"data":{"norad_id":43232,"intl_designator":"2018-024B","name":"O3B FM16","alt_names":[],"object_type":"PAYLOAD","status":"ACTIVE","operator":null,"country":"O3B","launch_date":"2018-03-09","launch_site_code":"FRGUI","launch_vehicle":null,"mission":null,"orbit_class":"UNKNOWN","rcs_meters":null,"size_class":null,"mass_kg":null,"dimensions":null,"purposes":["comms"],"wikipedia_slug":null,"has_3d_model":false,"image_url":null,"decayed_at":null,"tle_current":{"epoch":"2026-05-24T22:59:18.386016Z","epoch_age_seconds":74561,"freshness":"FRESH","line1":"1 43232U 18024B   26144.95785169 -.00000024  00000+0  00000+0 0  9991","line2":"2 43232   0.0499   7.9772 0002675  51.2930 300.7555  5.00115996149780","mean_motion":5.00115996,"eccentricity":0.0002675,"inclination_deg":0.0499,"raan_deg":7.9772,"arg_perigee_deg":51.293,"mean_anomaly_deg":300.7555,"bstar":0,"rev_number":14978,"period_min":287.93320180065,"perigee_km":8062.0168934592,"apogee_km":8069.7444429116,"semimajor_km":14444.017668185,"source":"CELESTRAK","updated_at":"2026-05-25T13:38:14.513754Z"}}}